TimeCDT,TemperatureF,Dew PointF,Humidity,Sea Level PressureIn,VisibilityMPH,Wind Direction,Wind SpeedMPH,Gust SpeedMPH,PrecipitationIn,Events,Conditions,WindDirDegrees,DateUTC
12:15 AM,59.0,39.2,48,30.17,10.0,NE,24.2,31.1,N/A,,Clear,40,2014-04-16 05:15:00
12:35 AM,59.0,39.2,48,30.17,10.0,NNE,24.2,-,N/A,,Clear,30,2014-04-16 05:35:00
12:55 AM,59.0,41.0,51,30.17,10.0,NE,23.0,-,N/A,,Partly Cloudy,40,2014-04-16 05:55:00
1:15 AM,59.0,41.0,51,30.16,10.0,NNE,26.5,-,N/A,,Partly Cloudy,30,2014-04-16 06:15:00
1:35 AM,59.0,39.2,48,30.16,10.0,NE,23.0,-,N/A,,Clear,40,2014-04-16 06:35:00
1:55 AM,59.0,39.2,48,30.16,10.0,NE,21.9,-,N/A,,Partly Cloudy,40,2014-04-16 06:55:00
2:15 AM,59.0,39.2,48,30.16,10.0,NE,21.9,-,N/A,,Partly Cloudy,40,2014-04-16 07:15:00
2:35 AM,59.0,41.0,51,30.16,10.0,NE,20.7,-,N/A,,Partly Cloudy,50,2014-04-16 07:35:00
2:55 AM,57.2,39.2,51,30.16,10.0,ENE,21.9,-,N/A,,Partly Cloudy,60,2014-04-16 07:55:00
3:15 AM,57.2,39.2,51,30.16,10.0,NE,20.7,-,N/A,,Partly Cloudy,40,2014-04-16 08:15:00
3:35 AM,57.2,39.2,51,30.17,10.0,NE,18.4,24.2,N/A,,Mostly Cloudy,50,2014-04-16 08:35:00
3:55 AM,57.2,39.2,51,30.17,10.0,NE,20.7,-,N/A,,Overcast,50,2014-04-16 08:55:00
4:15 AM,57.2,41.0,55,30.17,10.0,NE,19.6,-,N/A,,Overcast,50,2014-04-16 09:15:00
4:35 AM,57.2,41.0,55,30.18,10.0,ENE,20.7,-,N/A,,Overcast,60,2014-04-16 09:35:00
4:55 AM,57.2,41.0,55,30.18,10.0,NE,19.6,-,N/A,,Overcast,50,2014-04-16 09:55:00
5:15 AM,57.2,41.0,55,30.18,10.0,NE,15.0,23.0,N/A,,Overcast,50,2014-04-16 10:15:00
5:35 AM,57.2,41.0,55,30.18,10.0,ENE,16.1,23.0,N/A,,Overcast,70,2014-04-16 10:35:00
5:55 AM,57.2,41.0,55,30.19,10.0,ENE,13.8,20.7,N/A,,Overcast,70,2014-04-16 10:55:00
6:15 AM,57.2,42.8,59,30.19,10.0,East,16.1,-,N/A,,Overcast,80,2014-04-16 11:15:00
6:35 AM,59.0,42.8,55,30.20,10.0,ENE,16.1,21.9,N/A,,Overcast,60,2014-04-16 11:35:00
6:55 AM,59.0,42.8,55,30.20,10.0,ENE,15.0,-,N/A,,Overcast,60,2014-04-16 11:55:00
7:15 AM,59.0,42.8,55,30.21,10.0,East,15.0,24.2,N/A,,Overcast,90,2014-04-16 12:15:00
7:35 AM,59.0,42.8,55,30.22,10.0,ENE,17.3,-,N/A,,Overcast,70,2014-04-16 12:35:00
7:55 AM,59.0,42.8,55,30.21,-9999.0,ENE,12.7,20.7,N/A,,Overcast,70,2014-04-16 12:55:00
8:15 AM,59.0,42.8,55,30.22,10.0,East,16.1,-,N/A,,Overcast,90,2014-04-16 13:15:00
8:35 AM,59.0,42.8,55,30.22,10.0,ENE,12.7,-,N/A,,Overcast,70,2014-04-16 13:35:00
8:55 AM,59.0,42.8,55,30.21,10.0,East,10.4,18.4,N/A,,Overcast,80,2014-04-16 13:55:00
9:15 AM,59.0,44.6,59,30.22,10.0,ENE,13.8,-,N/A,,Overcast,70,2014-04-16 14:15:00
9:35 AM,59.0,44.6,59,30.22,10.0,East,16.1,-,N/A,,Overcast,100,2014-04-16 14:35:00
9:55 AM,59.0,44.6,59,30.22,10.0,East,11.5,17.3,N/A,,Overcast,90,2014-04-16 14:55:00
10:15 AM,59.0,44.6,59,30.23,10.0,East,11.5,-,N/A,,Overcast,80,2014-04-16 15:15:00
10:35 AM,60.8,44.6,55,30.22,10.0,East,13.8,-,N/A,,Overcast,100,2014-04-16 15:35:00
10:55 AM,60.8,46.4,59,30.22,10.0,ENE,8.1,15.0,N/A,,Overcast,60,2014-04-16 15:55:00
11:15 AM,60.8,46.4,59,30.22,10.0,East,13.8,-,N/A,,Overcast,80,2014-04-16 16:15:00
11:35 AM,60.8,46.4,59,30.22,10.0,ENE,11.5,-,N/A,,Overcast,70,2014-04-16 16:35:00
11:55 AM,60.8,46.4,59,30.22,10.0,East,11.5,17.3,N/A,,Overcast,100,2014-04-16 16:55:00
12:15 PM,60.8,46.4,59,30.21,10.0,East,10.4,-,N/A,,Overcast,90,2014-04-16 17:15:00
12:35 PM,60.8,46.4,59,30.21,10.0,ESE,8.1,-,N/A,,Overcast,110,2014-04-16 17:35:00
12:55 PM,60.8,46.4,59,30.21,10.0,ESE,8.1,13.8,N/A,,Overcast,110,2014-04-16 17:55:00
1:15 PM,60.8,46.4,59,30.20,10.0,East,11.5,-,N/A,,Overcast,90,2014-04-16 18:15:00
1:35 PM,60.8,46.4,59,30.19,10.0,ENE,6.9,-,N/A,,Overcast,70,2014-04-16 18:35:00
1:55 PM,60.8,46.4,59,30.19,10.0,East,8.1,-,N/A,,Overcast,100,2014-04-16 18:55:00
2:15 PM,60.8,48.2,63,30.18,10.0,NE,10.4,-,N/A,,Overcast,50,2014-04-16 19:15:00
2:35 PM,60.8,48.2,63,30.18,10.0,East,10.4,-,N/A,,Overcast,80,2014-04-16 19:35:00
2:55 PM,60.8,50.0,68,30.16,10.0,NE,10.4,-,N/A,,Overcast,40,2014-04-16 19:55:00
3:15 PM,60.8,48.2,63,30.16,10.0,ENE,12.7,-,N/A,,Overcast,70,2014-04-16 20:15:00
3:35 PM,60.8,50.0,68,30.16,10.0,ENE,17.3,-,N/A,,Overcast,60,2014-04-16 20:35:00
3:55 PM,60.8,50.0,68,30.15,10.0,NE,17.3,-,N/A,,Overcast,50,2014-04-16 20:55:00
4:15 PM,60.8,50.0,68,30.15,10.0,NE,17.3,-,N/A,,Overcast,40,2014-04-16 21:15:00
4:35 PM,60.8,50.0,68,30.15,10.0,NE,15.0,-,N/A,,Overcast,40,2014-04-16 21:35:00
4:55 PM,60.8,50.0,68,30.16,10.0,ENE,16.1,-,N/A,,Overcast,60,2014-04-16 21:55:00
5:15 PM,60.8,48.2,63,30.15,10.0,NE,15.0,-,N/A,,Overcast,40,2014-04-16 22:15:00
5:35 PM,60.8,48.2,63,30.14,10.0,NE,15.0,-,N/A,,Overcast,50,2014-04-16 22:35:00
5:55 PM,60.8,48.2,63,30.14,10.0,NE,13.8,-,N/A,,Overcast,50,2014-04-16 22:55:00
6:15 PM,60.8,48.2,63,30.14,10.0,ENE,13.8,-,N/A,,Overcast,60,2014-04-16 23:15:00
6:35 PM,59.0,48.2,67,30.14,10.0,ENE,17.3,-,N/A,,Overcast,60,2014-04-16 23:35:00
6:55 PM,60.8,48.2,63,30.13,10.0,ENE,15.0,-,N/A,,Overcast,70,2014-04-16 23:55:00
7:15 PM,60.8,48.2,63,30.14,10.0,ENE,13.8,-,N/A,,Overcast,60,2014-04-17 00:15:00
7:35 PM,60.8,48.2,63,30.14,10.0,NE,16.1,-,N/A,,Overcast,50,2014-04-17 00:35:00
7:55 PM,60.8,50.0,68,30.14,10.0,ENE,15.0,-,N/A,,Overcast,70,2014-04-17 00:55:00
8:15 PM,60.8,50.0,68,30.14,10.0,ENE,12.7,19.6,N/A,,Overcast,70,2014-04-17 01:15:00
8:35 PM,60.8,48.2,63,30.14,10.0,East,15.0,-,N/A,,Overcast,100,2014-04-17 01:35:00
8:55 PM,60.8,48.2,63,30.16,10.0,East,15.0,-,N/A,,Overcast,90,2014-04-17 01:55:00
9:15 PM,60.8,48.2,63,30.15,10.0,East,11.5,-,N/A,,Overcast,100,2014-04-17 02:15:00
9:35 PM,62.6,48.2,59,30.16,10.0,ESE,15.0,-,N/A,,Overcast,110,2014-04-17 02:35:00
9:55 PM,62.6,48.2,59,30.16,10.0,ESE,19.6,-,N/A,,Overcast,110,2014-04-17 02:55:00
10:15 PM,62.6,48.2,59,30.15,10.0,ESE,19.6,-,N/A,,Overcast,110,2014-04-17 03:15:00
10:35 PM,62.6,50.0,63,30.15,10.0,SE,16.1,-,N/A,,Overcast,130,2014-04-17 03:35:00
10:55 PM,62.6,48.2,59,30.15,10.0,ESE,16.1,26.5,N/A,,Overcast,120,2014-04-17 03:55:00
11:15 PM,62.6,50.0,63,30.16,10.0,ESE,19.6,-,N/A,,Overcast,120,2014-04-17 04:15:00
11:35 PM,62.6,51.8,68,30.16,10.0,ESE,19.6,-,N/A,,Overcast,110,2014-04-17 04:35:00
11:55 PM,62.6,50.0,63,30.16,10.0,ESE,16.1,-,N/A,,Overcast,120,2014-04-17 04:55:00